Regional Weather Roundup
Issued by NWS Newport/Morehead, NC

Current Version | Previous Version | Graphics & Text | Print | Product List | Glossary Off
Versions: 1 2 3 4 5 6 7 8 9 10 11 12 13 14 15 16 17 18 19 20 21 22 23 24 25 26 27 28 29 30 31 32 33 34 35 36 37 38 39 40 41 42 43 44 45 46 47 48 49 50

000
ASUS42 KMHX 021425
RWRMHX
WEATHER ROUNDUP FOR EASTERN NORTH CAROLINA
NATIONAL WEATHER SERVICE NEWPORT/MOREHEAD CITY NC
1000 AM EDT THU JUL 02 2015

NOTE: "FAIR" INDICATES FEW OR NO CLOUDS BELOW 12,000 FEET
WITH NO SIGNIFICANT WEATHER AND/OR OBSTRUCTIONS TO VISIBILITY

NCZ015>017-031-032-045>047-102-103-021500-
NORTH COAST

CITY           SKY/WX    TMP DP  RH WIND       PRES   REMARKS
EDENTON        NOT AVBL
ELIZABETH CITY PTSUNNY   80  73  79 SW8       29.92S
KITTY HAWK     NOT AVBL
MANTEO         NOT AVBL

$$

NCZ045>047-081-094-103-104-021500-
CENTRAL COAST

CITY           SKY/WX    TMP DP  RH WIND       PRES   REMARKS
FRISCO         MOSUNNY   81  75  82 SW12      29.97R
SWANQUARTER      N/A     84 N/A N/A W8G14     29.91S

$$

NCZ095-097-098-100-101-021500-
SOUTHERN COAST

CITY           SKY/WX    TMP DP  RH WIND       PRES   REMARKS
BEAUFORT       SUNNY     84  75  74 SW13      29.96F
CEDAR ISLAND     N/A     86 N/A N/A S7G18     30.00S
JACKSONVILLE   CLOUDY    80  68  66 SW10      29.96S
PINEY ISLAND   MOSUNNY  N/A N/A N/A SW12      29.95S
WILMINGTON     CLOUDY    83  71  67 W13       29.98S


$$

NCZ011>013-027>030-043-044-078>080-089-090>093-098-021500-
COASTAL PLAIN

CITY           SKY/WX    TMP DP  RH WIND       PRES   REMARKS
AHOSKIE        CLOUDY    77  72  85 CALM      29.92S
CLINTON        NOT AVBL
ELIZABETHTOWN  NOT AVBL
GOLDSBORO      CLOUDY    81  71  71 SW8       29.92F
GREENVILLE     NOT AVBL
HAVELOCK       MOSUNNY   83  71  67 W12       29.96F
KENANSVILLE    NOT AVBL
KINSTON        CLOUDY    81  72  74 SW9       29.95F FOG
NEW BERN       PTSUNNY   82  71  69 SW8       29.96F
RICHLANDS      CLOUDY    82  70  65 SW9       29.96S
ROCKY MOUNT    CLOUDY    81  72  74 SW10      29.93S
WASHINGTON     NOT AVBL
WHITEVILLE     NOT AVBL

$$

AMZ130-135-150-152-154-156-158-170-250-252-270-ANZ085-086-088-633-658-670-021500-
MARINE OBSERVATIONS

STATION/POSITION TIME  TEMP    WIND        PRES    WAVE   SWELL
                       AIR SEA DIR/SP/G            HT/PER HT/PER
                 (UTC) (F)     (DEG/KT/KT) (MB)    (FT/S) (FT/S)
CHESAPEAKE LIGHT 1400   78     210/ 10/ 11 1013.2
64 E VA BEACH    1350   78 77  210/ 14/ 16 1012.8    5/ 8   3/ 8
DUCK             1400   80 60  230/ 12/ 16 1012.5
2 E DUCK         1311      73                N/A     2/ 9
OREGON INLET     1400   81 80  210/ 16/ 17 1013.7
13E OREGON INLT  1400      74                N/A     4/ 8
HATTERAS CG      1400   80 80  210/  9/ 12 1014.1
DIAMOND BUOY     1350   81 83  230/ 17/ 19 1014.5    4/ 6   2/ 7
CAPE LOOKOUT     1400   82     230/ 12/ 15 1014.4
BEAUFORT LAB     1400   82 80  230/  7/ 15 1014.0
30 SE NEW RVR IN 1308   80 80  240/ 14/ 17 1015.2
27 SE WRIGHTSVLE 1400      80  250/ 12/ 16   N/A
5 SE WRIGHTSVLE  1308   80 80  270/ 12/ 14 1015.2
225 S CAPE HAT   1350   82 80  220/ 17/ 19 1019.0    7/ 7
41 SE CHARLESTON 1350   81 82  240/ 14/ 16 1016.2    4/ 6   2/ 9

$$



USA.gov is the U.S. government's official web portal to all federal, state and local government web resources and services.